Tracking 29892 objects as of 21-Nov-2024
HD Live streaming from Space Station
objects crossing your sky now

DELTA 1 DEB

Track DELTA 1 DEB now!
10-day predictions


NORAD ID: 12000
Int'l Code: 1973-086GL
Perigee: 1,512.1 km
Apogee: 1,546.4 km
Inclination: 102.3 °
Period: 116.5 minutes
Semi major axis: 7900 km
RCS: 0.0419 m2 (small)
Launch date: November 6, 1973
Source: United States (US)
Launch site: AIR FORCE WESTERN TEST RANGE (AFWTR)

Note: This is SATELLITE DEBRIS
Your satellite tracking list
Your tracking list is empty




NASA's NSSDC Master Catalog

Two Line Element Set (TLE):
1 12000U 73086GL  24324.43842726  .00000002  00000-0  37761-3 0  9997
2 12000 102.3284 306.4279 0021700 315.7539 202.9655 12.36357697476925
Source of the keplerian elements: AFSPC